Temp
9 9 9 9 9 9 9 9 9 9 9 9 9 9 10 10 10 10 10 10 9 9 9 9 9 9 9 9 9 9 9 8 9 9 9 9 9 9 9 9 9 9 9 9 9 10 10 10 10 10 10 9 9 9 9 9 9 9 9 9 9 9 9 9 8 8 8 9 9 9 8 8 8 8 8 8 8 9 9 9 9 9 9 9 9
9 9 9 9 9 9 9 9 9 9 9 9 9 10 10 10 10 10 10 9 9 9 9 9 9 9 9 9 9 8 8 8 9 9 9 9 8 8 9 9 9 9 9 9 9 9 10 10 10 9 9 9 9 9 9 9 9 9 9 9 9 9 9 8 8 8 8 9 8 8 8 8 8 8 8 8 8 9 9 9 9 8 8 9 9
9 9 9 9 9 9 9 9 9 9 10 10 10 10 10 10 10 10 9 9 9 9 9 9 9 9 9 9 9 8 8 8 9 9 9 8 8 8 8 9 9 9 9 9 9 9 9 9 9 9 9 9 9 9 9 9 9 9 9 9 9 9 8 8 8 8 8 8 8 8 8 8 8 8 8 8 9 9 9 9 9 8 9 9 9
9 9 9 9 9 9 9 9 9 10 10 10 10 10 10 9 9 9 9 9 9 9 9 9 9 9 9 9 9 9 9 9 9 8 8 8 8 8 8 8 9 9 9 9 9 9 9 9 9 8 8 8 9 8 9 9 9 9 9 9 9 8 8 8 8 8 8 8 8 8 8 8 8 8 8 8 9 9 9 9 9 9 9 8 8
9 9 9 9 9 9 9 9 10 10 10 10 10 9 9 9 9 9 9 9 9 9 9 9 9 9 9 9 9 9 9 9 9 8 8 7 8 8 9 8 9 9 9 9 9 9 9 8 8 8 8 8 9 9 9 9 9 9 9 9 8 8 8 8 8 8 8 8 8 8 8 8 8 8 8 9 9 9 9 9 9 9 9 8 8
9 9 9 9 9 9 9 9 10 10 10 9 9 9 9 9 9 9 9 9 9 9 9 9 9 9 9 9 9 9 9 8 8 8 7 7 8 9 9 9 9 9 9 9 9 9 9 8 8 8 8 9 9 9 9 9 9 9 9 8 8 8 8 8 8 8 8 8 8 8 9 8 8 9 9 9 9 8 9 9 9 9 9 8 8
9 9 9 9 9 9 9 9 9 9 9 9 9 9 9 9 9 9 9 9 9 9 9 9 9 9 8 8 8 8 8 8 8 7 7 7 9 9 9 9 9 9 9 9 8 8 8 8 8 8 8 8 9 9 9 9 9 9 9 8 8 8 8 8 8 8 8 8 9 9 9 9 9 9 9 9 9 8 9 9 9 9 9 8 8
9 9 9 9 9 9 9 9 9 9 9 9 9 9 9 9 9 9 9 9 9 9 9 9 8 8 8 8 8 8 8 8 8 7 7 8 9 9 9 9 9 9 9 8 8 8 8 8 8 8 8 8 8 8 9 8 9 9 8 8 8 8 8 8 8 8 8 8 9 9 9 9 9 9 9 8 8 9 9 9 9 9 9 8 8
9 9 9 9 9 9 9 10 10 9 9 9 9 9 9 9 9 9 9 9 9 9 9 8 8 8 8 8 8 8 8 8 8 7 7 7 9 9 9 9 9 9 9 8 8 8 8 8 8 8 8 8 8 8 8 8 8 8 8 8 8 8 8 8 8 8 8 8 8 8 9 9 8 8 8 8 9 9 9 9 9 9 9 8 8
9 9 9 9 9 9 9 10 10 10 9 9 9 9 9 9 9 9 9 9 9 9 8 8 8 8 8 8 8 8 8 8 7 7 7 8 9 9 9 8 8 8 8 8 8 8 8 8 8 8 8 8 8 8 8 8 8 8 8 8 8 8 8 8 8 8 8 9 9 8 8 8 8 8 8 8 9 9 9 9 9 9 9 9 8
9 10 10 9 9 9 10 10 10 10 9 9 9 9 9 9 9 9 9 9 9 9 8 8 8 8 8 8 8 8 8 8 8 7 7 7 8 9 8 8 8 8 8 8 8 8 8 8 8 8 8 8 8 8 8 8 8 8 8 8 8 8 8 8 8 8 8 9 9 9 8 8 8 8 8 8 9 9 9 9 9 10 9 9 8
9 10 10 9 9 9 9 10 9 9 9 9 9 9 9 9 9 9 9 9 9 9 8 8 8 8 8 8 8 8 8 8 8 8 7 7 8 8 8 8 8 8 8 8 8 8 8 8 8 8 8 8 8 8 8 8 8 8 8 8 8 8 8 8 8 8 9 9 9 8 8 8 8 8 8 8 9 9 9 9 9 9 9 9 9
10 10 9 9 9 9 9 9 9 9 9 9 9 9 9 9 9 9 9 9 9 8 8 8 8 8 8 8 8 8 8 8 8 8 8 8 8 8 8 8 8 9 9 9 8 8 8 8 8 8 8 8 8 8 8 8 8 8 8 8 8 8 8 8 8 9 9 9 8 8 8 8 8 8 8 8 9 9 9 9 9 9 9 9 9
9 9 9 9 9 9 9 9 9 9 9 9 9 9 9 9 9 9 9 9 9 8 8 8 8 8 8 8 8 8 8 8 8 9 8 8 8 8 8 8 9 9 9 9 8 8 8 8 8 8 8 9 9 8 8 8 8 8 8 8 8 8 8 8 9 9 9 8 8 8 8 8 8 8 8 8 9 9 9 9 9 9 9 9 9
9 9 9 9 9 9 9 9 9 9 9 9 9 9 9 9 9 9 9 9 9 9 8 8 8 8 8 8 8 8 8 8 8 8 8 8 8 8 8 9 9 9 9 9 8 8 8 8 8 8 8 9 9 9 8 8 8 8 8 8 8 8 8 8 9 9 9 8 8 8 8 8 8 8 8 8 9 9 8 9 9 9 9 9 9
9 9 9 9 9 9 9 9 9 9 9 9 9 9 9 9 9 9 9 9 9 9 8 8 8 8 8 8 8 8 8 8 8 8 9 9 9 9 9 9 9 9 9 9 8 8 8 8 8 8 8 8 8 8 8 8 8 8 8 8 8 9 9 9 9 9 8 8 8 8 8 8 8 8 8 8 8 8 8 9 9 9 9 9 9
9 9 9 9 9 9 9 9 9 9 9 9 9 8 9 9 9 9 9 9 9 9 8 8 8 8 8 8 8 8 8 8 8 9 9 9 9 9 9 9 10 9 9 9 8 9 9 9 8 8 8 8 8 8 8 8 8 8 8 8 8 9 9 9 8 8 8 8 8 8 8 8 8 8 8 8 8 8 8 8 9 9 9 9 9
9 9 9 9 9 9 9 9 9 9 9 8 8 8 9 9 9 9 9 9 9 9 8 8 8 8 8 8 8 8 8 8 8 9 9 9 9 9 9 10 10 9 9 8 9 9 9 9 8 8 8 8 8 8 8 8 8 8 8 8 9 9 9 8 8 8 8 8 8 8 8 8 8 8 8 8 8 8 8 8 8 9 9 9 9
9 9 9 9 9 9 9 9 9 8 8 8 8 8 9 9 9 9 9 9 9 9 9 8 8 8 8 8 8 8 8 8 8 9 10 9 9 9 9 9 9 9 9 9 9 9 8 8 8 9 8 8 8 8 8 8 8 8 9 9 9 9 8 8 8 8 8 8 8 8 8 8 8 8 8 8 8 8 8 8 8 9 9 9 9
9 9 9 9 9 9 9 9 9 8 8 8 8 8 9 9 9 9 9 9 9 9 9 9 8 8 8 8 8 8 8 8 8 9 10 10 10 9 9 9 9 9 9 9 8 8 8 8 8 8 9 9 9 8 8 8 8 9 9 9 9 8 8 8 8 8 8 8 8 8 8 8 8 8 8 8 8 8 8 8 8 9 9 9 9
9 9 9 9 9 9 9 9 9 9 8 9 9 9 9 9 9 9 9 9 9 9 9 9 9 8 8 8 8 8 8 8 8 8 9 10 10 10 9 9 9 9 9 9 9 8 8 8 8 8 9 9 9 9 9 9 9 9 9 9 8 8 8 8 8 8 8 8 8 8 8 8 8 8 8 8 8 9 8 9 9 9 9 9 9
9 9 9 9 9 9 9 9 9 9 9 9 9 9 9 9 9 9 9 9 9 9 9 9 9 9 8 8 8 8 8 8 8 8 8 9 10 10 10 9 9 9 9 9 9 8 8 8 8 8 8 9 8 8 8 9 9 9 9 8 8 8 8 8 8 8 8 8 8 8 8 8 8 8 8 8 9 9 9 9 9 9 9 9 9
9 9 9 9 9 9 9 9 9 9 9 9 9 9 9 9 9 9 9 9 9 9 9 9 9 9 9 9 8 8 8 8 8 8 8 8 8 9 10 10 9 9 9 9 9 9 9 8 9 9 8 8 8 8 8 8 8 8 8 8 8 8 8 8 8 8 8 8 8 8 8 8 8 8 8 8 9 9 9 9 9 9 9 9 9
9 9 9 9 9 9 9 9 9 9 9 9 9 9 9 9 9 9 9 9 9 9 9 9 9 9 9 9 9 9 8 8 8 8 8 7 8 8 9 10 10 9 9 9 9 9 9 9 9 9 8 8 8 8 8 8 8 8 8 8 8 8 8 8 8 8 8 8 8 8 8 8 8 8 8 9 9 9 9 9 9 9 9 9 9
9 9 9 9 9 9 9 9 9 9 9 9 9 9 9 9 9 9 9 9 9 9 9 9 9 9 9 8 9 9 9 9 8 8 8 8 8 8 9 9 9 10 9 9 9 9 9 9 9 9 9 9 8 8 8 8 8 8 8 8 8 8 8 8 8 8 8 8 8 8 8 8 8 8 9 9 9 9 9 9 9 9 9 9 9
9 9 9 10 9 9 9 9 9 9 9 9 9 9 9 9 9 9 9 9 9 9 9 9 9 9 9 9 9 9 9 9 9 8 8 8 8 8 8 8 9 9 10 9 9 9 8 8 8 8 8 9 8 8 9 9 9 8 8 8 8 9 9 9 8 8 8 9 9 9 9 8 9 9 9 9 9 9 9 9 9 9 9 9 9
10 10 10 10 9 9 9 9 9 9 9 9 9 9 9 9 9 9 9 9 9 9 9 9 9 9 9 9 9 9 9 9 9 8 8 8 8 8 8 8 9 9 9 9 9 9 9 8 8 8 8 8 8 8 8 8 8 9 8 8 8 9 9 9 9 8 9 9 9 9 9 9 9 9 9 9 9 9 9 8 8 8 8 9 9
10 10 10 10 9 9 9 9 9 9 9 9 9 9 9 9 9 9 9 9 9 9 9 9 9 9 9 9 9 9 9 9 9 9 9 8 8 8 8 8 8 8 8 9 9 9 9 9 8 8 8 8 8 8 8 8 8 8 8 8 8 9 9 9 9 9 9 9 9 9 9 9 9 9 9 9 9 9 8 8 8 8 9 9 9
10 10 10 10 9 9 9 9 9 9 9 9 9 9 9 9 9 9 9 9 9 9 9 9 9 9 9 9 9 9 9 9 9 9 9 9 9 9 8 8 8 8 8 8 9 9 9 8 8 8 8 8 8 8 8 8 8 8 8 8 8 9 9 9 9 9 9 9 9 9 9 9 9 9 9 9 9 8 8 8 9 9 9 9 10
10 10 10 9 9 9 9 9 9 10 9 9 9 9 9 9 9 9 9 8 8 8 8 9 9 9 9 9 9 9 9 9 9 9 9 9 9 9 9 9 9 9 9 9 9 9 9 8 8 8 8 8 8 8 8 8 8 8 8 8 8 8 9 9 9 9 9 9 9 9 9 9 9 9 9 9 8 8 8 9 9 9 9 10 10
10 10 10 9 9 9 9 9 9 10 9 9 9 9 9 9 9 9 9 8 8 8 8 8 8 9 9 9 9 8 9 9 9 9 9 9 9 9 9 9 9 9 9 9 9 9 9 8 8 8 8 8 8 8 8 8 8 8 8 8 8 8 9 9 9 9 9 9 9 8 9 9 9 9 9 8 8 8 9 9 9 9 10 10 10
10 10 10 10 9 9 9 9 9 10 10 9 9 9 9 9 9 9 9 8 8 9 8 8 8 9 9 9 9 8 8 8 8 8 8 9 9 9 9 9 9 9 9 9 9 9 8 8 8 8 8 8 8 8 8 8 8 8 8 8 8 8 9 9 9 9 9 9 9 8 8 8 9 9 9 9 9 9 9 9 9 10 10 10 10
10 10 10 10 9 9 10 9 9 10 10 9 9 9 9 9 9 9 9 9 8 9 9 8 8 9 9 9 9 9 8 8 8 8 8 8 8 8 8 8 8 8 8 8 8 8 8 8 8 8 8 8 8 8 8 8 8 8 8 8 8 8 9 9 9 9 9 9 9 9 8 8 8 9 9 9 9 9 9 9 10 10 10 11 11
10 10 10 10 10 10 10 10 10 10 10 10 9 9 9 9 9 9 9 9 9 9 9 9 9 9 9 9 9 9 9 9 8 8 8 8 8 8 8 8 8 8 8 8 8 8 8 8 8 8 8 8 8 8 8 8 8 8 8 8 8 9 9 9 9 9 9 9 9 9 9 8 8 9 9 9 9 9 9 10 10 10 11 11 11
11 10 10 10 10 10 10 10 10 10 10 10 10 9 9 9 9 9 9 9 9 9 9 9 9 9 9 9 9 9 9 9 9 8 8 8 8 8 8 8 8 8 8 8 8 8 8 9 9 8 8 8 8 8 8 8 8 9 9 9 9 9 9 9 9 9 9 9 9 9 9 9 9 9 9 9 9 10 10 10 10 11 11 11 11
11 10 10 10 10 10 10 10 10 10 10 9 10 10 9 9 9 9 9 9 9 9 9 9 9 9 9 9 9 9 9 9 9 9 9 8 8 8 9 8 8 8 8 8 8 8 9 9 9 9 8 8 8 8 8 8 8 9 9 9 9 9 9 9 9 9 9 9 9 9 9 9 9 9 9 9 9 10 10 10 11 11 11 12 12
11 10 10 10 10 10 10 10 10 10 10 10 10 10 9 9 9 9 9 9 9 9 9 9 9 9 9 9 9 9 9 9 9 9 9 9 9 9 9 9 9 9 8 8 8 9 9 9 9 9 9 9 8 8 9 9 9 9 9 9 9 9 9 9 9 9 9 9 9 9 9 9 9 9 9 9 9 10 11 11 11 11 11 12 12
11 10 10 10 10 10 10 10 10 10 10 10 10 10 10 9 9 9 9 9 9 9 9 9 9 9 9 9 9 9 9 9 9 9 9 9 9 9 9 9 9 9 9 9 9 9 9 9 9 9 9 9 8 8 9 9 9 9 9 9 9 9 9 9 9 9 9 9 9 9 9 9 9 9 9 10 10 10 11 11 11 12 12 12 12
10 10 10 10 10 10 10 10 10 10 10 10 10 10 10 9 9 9 9 9 9 9 9 9 9 9 9 9 9 9 9 9 9 9 9 9 9 9 9 9 9 9 9 9 9 9 9 9 9 9 9 9 9 9 9 9 9 9 9 9 9 9 9 9 9 9 9 9 9 9 9 9 9 10 10 10 10 10 11 11 12 12 12 12 12
10 11 10 10 10 10 10 10 10 10 10 10 10 10 10 9 9 9 9 9 9 9 9 9 9 9 9 9 9 9 9 9 9 9 9 9 9 9 9 9 9 9 9 9 9 9 9 9 9 9 9 9 9 9 9 9 9 9 9 9 9 9 9 10 9 9 9 9 9 9 9 9 10 10 10 10 11 11 11 12 12 12 12 12 12
11 11 11 10 10 10 10 10 10 10 10 10 10 10 10 10 9 9 9 9 9 9 9 9 9 9 9 9 9 9 9 9 9 9 9 9 9 9 9 9 9 9 9 9 9 9 9 9 9 9 9 9 9 9 9 9 9 9 9 9 9 10 10 10 9 9 9 9 9 10 10 10 10 11 11 11 11 12 12 12 12 12 12 12 12
11 11 11 10 10 10 10 10 10 10 10 10 10 10 10 10 9 9 9 9 9 9 9 9 9 9 9 9 9 9 9 9 9 9 9 9 9 9 9 9 9 9 9 9 9 9 9 9 9 9 9 9 9 9 9 9 9 9 9 9 9 10 10 9 9 9 9 9 9 10 10 10 11 11 11 11 11 12 12 12 12 12 12 12 12
11 11 11 11 10 10 10 10 10 10 10 10 10 10 10 9 9 9 9 9 9 9 9 9 9 9 9 9 9 9 9 9 9 9 9 9 9 9 9 9 9 10 10 9 9 9 9 9 9 9 9 9 9 10 9 9 9 9 9 9 9 9 10 9 9 9 9 9 9 9 10 10 11 11 11 11 12 12 12 12 12 12 12 12 12
11 11 11 11 11 10 10 10 10 10 10 10 10 10 10 9 9 9 9 9 9 9 9 9 9 9 9 9 9 9 9 9 9 9 9 9 9 9 9 9 9 9 10 9 9 9 9 9 9 9 9 9 9 10 10 9 9 9 9 9 9 9 9 9 9 9 9 9 9 9 10 10 11 11 11 11 12 12 12 12 12 12 12 12 12
11 11 11 11 11 11 10 10 10 10 10 10 10 10 10 9 10 10 10 10 10 9 9 9 9 9 9 9 9 9 9 9 9 9 9 9 9 9 9 9 9 9 9 9 9 9 9 9 9 9 9 9 9 9 10 10 10 9 9 9 9 9 9 9 9 9 8 8 8 9 11 11 11 11 11 11 12 12 12 12 12 12 12 12 12
11 11 11 11 11 10 10 10 10 10 10 10 10 10 10 10 10 10 10 10 10 10 9 9 9 9 9 9 9 9 9 9 9 9 9 9 9 9 9 9 9 9 9 9 9 9 9 9 9 9 9 9 9 9 9 10 10 10 10 9 9 9 9 9 9 9 9 8 9 9 10 11 11 11 11 12 12 12 12 12 12 12 12 12 12
11 11 11 11 11 11 10 10 10 10 10 10 10 10 10 10 10 10 10 10 10 9 9 9 9 9 9 9 9 9 9 9 9 9 9 9 9 9 9 9 9 9 9 9 9 9 9 9 9 9 9 9 9 9 9 9 10 10 10 10 10 10 10 10 10 10 10 9 9 8 10 11 11 11 11 12 12 12 12 12 12 12 12 12 12
11 11 11 11 11 11 11 10 10 10 10 10 10 10 10 10 10 10 10 10 10 9 9 9 9 9 9 9 9 9 9 9 9 9 9 9 9 9 9 9 9 9 9 9 9 9 9 9 9 9 9 9 9 9 9 9 9 10 10 9 10 10 10 10 10 10 10 10 9 9 10 11 11 11 12 12 12 12 12 12 12 12 12 12 12
11 11 11 11 11 11 11 11 11 10 10 10 10 10 10 10 10 10 10 10 10 10 10 10 9 9 9 9 9 9 9 9 9 10 10 9 9 9 9 9 9 9 9 9 9 9 9 9 9 9 9 9 9 9 9 9 9 9 10 10 9 10 10 10 10 10 10 10 10 9 10 11 11 12 12 12 12 12 12 12 12 12 12 12 12
11 11 11 11 11 11 11 11 11 11 10 10 10 10 10 10 10 10 10 10 10 10 10 10 10 10 10 9 9 9 9 9 9 10 10 9 9 9 9 9 9 9 9 9 9 9 9 9 9 9 9 9 9 9 9 9 9 9 9 9 9 9 10 10 10 10 10 10 10 9 10 11 11 11 12 12 12 12 12 12 12 12 12 12 12
11 11 11 11 11 11 11 11 11 11 11 10 10 10 10 10 10 10 10 10 10 10 10 10 10 10 10 10 9 9 9 9 9 10 10 10 9 9 9 9 9 9 9 9 9 9 9 9 9 9 9 9 9 9 9 9 9 9 9 9 9 9 10 10 10 10 10 10 10 9 9 11 11 11 12 12 12 12 12 12 12 12 12 12 12
Height
3197 3198 3199 3201 3203 3204 3205 3206 3208 3208 3209 3210 3211 3212 3213 3213 3214 3216 3217 3217 3217 3216 3216 3216 3216 3216 3216 3215 3215 3215 3215 3215 3215 3215 3215 3216 3216 3216 3216 3216 3216 3217 3217 3218 3218 3218 3218 3218 3218 3219 3219 3219 3219 3219 3220 3220 3220 3220 3220 3220 3220 3220 3219 3218 3217 3218 3219 3219 3220 3220 3220 3220 3220 3219 3219 3220 3220 3220 3220 3220 3219 3220 3220 3219 3220
3198 3199 3200 3202 3204 3205 3206 3208 3209 3210 3211 3212 3212 3213 3214 3215 3217 3217 3218 3217 3217 3216 3217 3217 3217 3217 3216 3216 3216 3216 3216 3216 3216 3215 3215 3215 3215 3215 3216 3217 3217 3218 3218 3218 3218 3218 3218 3218 3218 3218 3218 3219 3219 3219 3220 3220 3221 3221 3221 3221 3221 3220 3220 3218 3217 3220 3221 3220 3221 3221 3221 3221 3220 3220 3221 3221 3221 3221 3221 3221 3221 3221 3221 3221 3221
3200 3201 3203 3204 3205 3206 3207 3209 3210 3211 3212 3213 3214 3215 3216 3217 3218 3218 3218 3218 3217 3217 3218 3218 3217 3217 3217 3216 3216 3216 3216 3216 3215 3215 3215 3215 3214 3214 3216 3218 3219 3218 3218 3218 3218 3218 3218 3218 3219 3219 3219 3219 3219 3220 3220 3221 3221 3221 3221 3221 3221 3221 3220 3218 3219 3222 3222 3221 3222 3222 3222 3221 3221 3222 3222 3222 3222 3222 3222 3222 3222 3222 3222 3222 3222
3202 3203 3204 3206 3207 3208 3208 3210 3211 3212 3213 3214 3215 3216 3217 3218 3218 3218 3218 3218 3218 3218 3218 3218 3218 3218 3217 3217 3217 3216 3216 3216 3215 3215 3214 3212 3214 3216 3218 3219 3218 3218 3218 3218 3218 3218 3218 3219 3219 3219 3219 3219 3219 3220 3221 3222 3222 3222 3222 3222 3221 3221 3221 3219 3220 3223 3222 3222 3222 3222 3222 3222 3223 3223 3223 3223 3223 3223 3223 3223 3223 3223 3223 3223 3223
3203 3204 3205 3207 3208 3209 3210 3211 3212 3213 3215 3216 3217 3218 3218 3219 3219 3219 3219 3219 3219 3219 3219 3219 3219 3218 3218 3217 3217 3217 3216 3216 3215 3213 3211 3211 3215 3219 3219 3218 3217 3217 3218 3218 3218 3218 3218 3219 3219 3219 3219 3220 3221 3221 3221 3222 3222 3222 3222 3222 3222 3222 3221 3221 3222 3224 3223 3223 3223 3223 3223 3224 3225 3225 3225 3225 3224 3225 3224 3224 3224 3224 3224 3225 3224
3204 3205 3207 3208 3209 3210 3211 3212 3213 3215 3216 3217 3218 3218 3219 3219 3219 3219 3219 3219 3219 3219 3219 3219 3218 3218 3217 3217 3217 3217 3217 3216 3214 3212 3211 3214 3218 3219 3219 3217 3217 3217 3218 3217 3217 3217 3218 3218 3219 3219 3220 3221 3222 3222 3222 3222 3222 3222 3222 3222 3222 3222 3222 3222 3222 3224 3224 3224 3224 3225 3225 3226 3226 3225 3226 3226 3226 3226 3226 3225 3225 3226 3226 3226 3225
3205 3206 3208 3209 3210 3211 3213 3213 3214 3215 3216 3217 3218 3219 3219 3220 3220 3220 3220 3220 3219 3219 3219 3219 3218 3218 3217 3217 3217 3217 3217 3216 3213 3211 3213 3218 3219 3219 3219 3218 3218 3218 3218 3217 3217 3217 3218 3218 3219 3220 3221 3221 3222 3222 3222 3222 3223 3223 3223 3223 3223 3223 3223 3223 3223 3224 3224 3225 3226 3227 3227 3227 3227 3226 3227 3227 3227 3227 3227 3226 3226 3226 3227 3227 3227
3206 3207 3209 3210 3211 3212 3213 3214 3215 3216 3217 3218 3219 3219 3220 3220 3220 3220 3220 3220 3220 3220 3219 3218 3218 3218 3217 3217 3217 3217 3217 3216 3214 3212 3215 3219 3220 3220 3219 3218 3219 3219 3218 3217 3217 3217 3218 3218 3218 3220 3221 3222 3223 3223 3223 3223 3223 3224 3223 3224 3224 3224 3224 3224 3224 3223 3223 3224 3226 3228 3228 3228 3228 3228 3228 3228 3228 3228 3227 3227 3227 3227 3227 3228 3228
3207 3209 3210 3211 3212 3213 3214 3215 3216 3217 3218 3219 3220 3220 3220 3220 3221 3221 3220 3220 3220 3220 3219 3218 3218 3217 3217 3218 3218 3218 3217 3217 3215 3212 3215 3220 3221 3221 3220 3219 3220 3219 3218 3218 3218 3218 3219 3219 3219 3220 3221 3222 3223 3223 3223 3223 3224 3224 3224 3224 3224 3225 3225 3225 3225 3224 3224 3225 3227 3228 3230 3230 3230 3230 3230 3230 3229 3229 3228 3228 3229 3228 3228 3229 3229
3208 3210 3211 3212 3213 3214 3215 3216 3217 3218 3219 3220 3220 3220 3221 3221 3221 3221 3221 3220 3220 3220 3219 3218 3218 3218 3218 3218 3218 3218 3218 3217 3215 3213 3216 3221 3223 3222 3221 3220 3220 3220 3219 3219 3219 3219 3220 3220 3219 3220 3221 3222 3223 3223 3223 3224 3224 3224 3225 3225 3225 3226 3226 3226 3226 3226 3226 3227 3228 3229 3230 3231 3231 3231 3231 3231 3231 3230 3230 3230 3230 3229 3229 3229 3229
3210 3211 3212 3213 3214 3215 3216 3217 3218 3219 3219 3220 3220 3221 3221 3222 3222 3222 3221 3220 3220 3220 3219 3219 3218 3218 3218 3218 3218 3218 3218 3218 3217 3215 3217 3221 3223 3223 3222 3222 3221 3221 3221 3220 3220 3220 3221 3221 3220 3221 3222 3223 3223 3224 3224 3225 3225 3225 3225 3226 3226 3227 3227 3227 3227 3227 3228 3229 3230 3231 3231 3232 3232 3233 3233 3232 3232 3231 3231 3231 3231 3230 3230 3230 3230
3210 3211 3213 3214 3215 3216 3217 3218 3219 3219 3220 3221 3221 3221 3222 3223 3223 3222 3222 3221 3220 3220 3220 3220 3219 3219 3218 3219 3219 3219 3219 3218 3219 3218 3219 3221 3223 3223 3222 3223 3222 3222 3222 3221 3221 3221 3222 3222 3222 3222 3223 3224 3224 3225 3225 3226 3226 3227 3227 3227 3228 3228 3228 3228 3228 3229 3230 3231 3231 3232 3233 3233 3234 3234 3234 3233 3233 3233 3232 3232 3232 3232 3231 3231 3231
3211 3212 3214 3215 3216 3217 3218 3218 3219 3220 3221 3221 3222 3222 3222 3223 3223 3223 3222 3221 3221 3221 3221 3221 3220 3220 3219 3220 3220 3220 3219 3219 3221 3221 3221 3221 3222 3223 3223 3223 3223 3223 3222 3222 3222 3222 3223 3223 3223 3223 3224 3225 3226 3226 3227 3227 3228 3228 3228 3228 3229 3230 3230 3230 3230 3231 3232 3232 3233 3233 3234 3234 3235 3235 3235 3234 3234 3234 3234 3233 3233 3233 3233 3233 3232
3212 3213 3215 3216 3217 3218 3219 3219 3220 3221 3222 3222 3222 3222 3222 3223 3223 3224 3223 3222 3222 3221 3222 3222 3221 3221 3221 3221 3221 3220 3220 3221 3223 3223 3223 3223 3223 3223 3224 3224 3224 3223 3223 3222 3222 3223 3223 3224 3225 3225 3226 3227 3227 3228 3228 3229 3229 3229 3230 3230 3230 3231 3232 3232 3232 3233 3233 3234 3234 3235 3235 3236 3236 3236 3236 3236 3235 3235 3235 3234 3234 3234 3234 3234 3234
3213 3214 3216 3217 3217 3219 3219 3220 3221 3222 3222 3222 3222 3223 3223 3223 3224 3224 3225 3224 3223 3222 3223 3223 3223 3222 3222 3222 3221 3221 3221 3222 3224 3224 3225 3225 3225 3225 3225 3225 3224 3224 3223 3223 3224 3224 3224 3225 3226 3227 3228 3229 3230 3230 3229 3230 3230 3230 3231 3231 3232 3233 3233 3233 3234 3234 3235 3235 3236 3236 3237 3237 3237 3237 3237 3237 3236 3236 3236 3236 3235 3235 3235 3235 3234
3214 3215 3216 3217 3218 3219 3220 3221 3221 3222 3223 3223 3223 3224 3224 3224 3225 3225 3225 3225 3224 3224 3224 3224 3224 3224 3224 3223 3222 3222 3222 3223 3225 3225 3226 3226 3226 3226 3226 3226 3225 3225 3224 3225 3225 3225 3226 3226 3227 3228 3229 3230 3231 3230 3230 3230 3231 3231 3232 3232 3233 3234 3234 3235 3235 3236 3236 3237 3237 3238 3238 3238 3238 3238 3238 3238 3238 3237 3237 3237 3237 3236 3236 3235 3235
3215 3216 3217 3218 3219 3220 3221 3221 3222 3222 3223 3223 3224 3224 3224 3225 3225 3226 3226 3226 3226 3226 3226 3226 3226 3226 3225 3224 3224 3223 3224 3225 3225 3226 3227 3228 3228 3228 3227 3227 3227 3226 3226 3226 3227 3227 3228 3228 3228 3229 3229 3230 3231 3231 3231 3231 3232 3233 3233 3234 3234 3235 3235 3236 3237 3238 3238 3238 3239 3239 3239 3240 3239 3239 3239 3239 3239 3239 3238 3238 3238 3237 3237 3236 3236
3216 3217 3218 3218 3219 3220 3221 3222 3222 3223 3223 3224 3224 3225 3225 3226 3226 3226 3226 3227 3227 3227 3227 3227 3227 3227 3226 3226 3225 3225 3225 3226 3227 3227 3228 3229 3230 3229 3229 3228 3228 3228 3228 3228 3229 3229 3230 3230 3230 3230 3230 3231 3231 3232 3232 3233 3233 3234 3235 3236 3236 3236 3237 3238 3239 3239 3240 3240 3240 3240 3240 3241 3241 3241 3241 3240 3240 3240 3239 3239 3239 3238 3237 3237 3237
3216 3217 3218 3219 3220 3221 3222 3222 3222 3223 3224 3224 3225 3226 3226 3226 3226 3227 3227 3227 3228 3228 3228 3228 3228 3228 3227 3227 3227 3226 3226 3227 3228 3229 3230 3231 3231 3231 3230 3230 3230 3230 3230 3230 3230 3231 3232 3232 3232 3232 3232 3233 3233 3233 3234 3235 3235 3236 3237 3238 3238 3239 3239 3240 3240 3241 3241 3241 3241 3241 3242 3242 3242 3242 3242 3241 3241 3241 3240 3240 3240 3239 3238 3238 3238
3216 3217 3219 3220 3221 3222 3222 3222 3222 3223 3223 3224 3225 3226 3226 3227 3227 3228 3228 3228 3229 3229 3229 3230 3230 3229 3229 3228 3228 3228 3228 3228 3228 3230 3231 3232 3233 3233 3232 3231 3231 3231 3231 3231 3232 3233 3233 3233 3234 3234 3235 3235 3235 3236 3236 3237 3238 3238 3239 3239 3240 3240 3241 3241 3242 3242 3242 3242 3243 3243 3243 3243 3243 3243 3243 3242 3242 3242 3241 3241 3240 3240 3239 3239 3239
3217 3218 3219 3220 3221 3222 3222 3223 3223 3224 3224 3224 3225 3226 3227 3228 3228 3229 3229 3229 3230 3230 3231 3231 3231 3231 3230 3230 3230 3229 3229 3228 3228 3230 3232 3233 3234 3235 3234 3233 3232 3232 3233 3233 3233 3234 3234 3235 3235 3236 3237 3237 3237 3238 3238 3239 3240 3240 3241 3241 3241 3242 3243 3243 3243 3243 3243 3244 3244 3244 3244 3244 3244 3244 3244 3243 3243 3243 3242 3242 3241 3241 3240 3240 3240
3218 3218 3220 3221 3222 3223 3223 3224 3224 3225 3225 3226 3227 3227 3228 3229 3230 3230 3230 3231 3231 3231 3232 3232 3232 3232 3232 3232 3231 3231 3231 3230 3229 3230 3232 3234 3235 3235 3236 3236 3235 3234 3234 3235 3235 3236 3236 3237 3237 3238 3238 3239 3239 3239 3240 3241 3241 3242 3242 3242 3243 3243 3244 3244 3245 3245 3245 3245 3245 3245 3245 3245 3245 3244 3244 3244 3244 3244 3243 3243 3242 3242 3241 3241 3241
3218 3219 3220 3221 3222 3223 3223 3224 3225 3226 3226 3227 3227 3228 3229 3230 3231 3231 3231 3232 3233 3233 3233 3233 3233 3233 3234 3233 3233 3232 3233 3232 3232 3232 3232 3233 3235 3236 3237 3238 3238 3237 3236 3237 3237 3238 3238 3239 3239 3240 3240 3240 3241 3241 3242 3242 3243 3243 3244 3244 3244 3245 3245 3246 3246 3246 3246 3246 3245 3245 3246 3245 3245 3245 3245 3245 3245 3245 3244 3243 3243 3243 3242 3242 3242
3219 3220 3221 3222 3222 3223 3224 3225 3226 3227 3227 3227 3228 3229 3229 3230 3231 3232 3232 3233 3234 3234 3234 3234 3234 3234 3234 3235 3235 3235 3235 3234 3234 3234 3233 3233 3235 3236 3238 3239 3240 3239 3239 3238 3238 3239 3240 3240 3241 3241 3241 3242 3242 3243 3243 3244 3244 3244 3245 3245 3246 3246 3247 3247 3247 3247 3247 3246 3246 3246 3246 3246 3246 3246 3246 3246 3246 3245 3245 3244 3244 3244 3244 3243 3243
3219 3220 3221 3222 3223 3224 3225 3226 3227 3227 3228 3228 3229 3230 3230 3231 3231 3232 3233 3234 3235 3235 3236 3236 3236 3236 3236 3236 3236 3237 3236 3236 3236 3236 3235 3236 3237 3237 3238 3239 3240 3240 3240 3240 3240 3240 3241 3241 3242 3242 3243 3243 3244 3244 3245 3245 3245 3246 3246 3246 3247 3247 3248 3248 3248 3247 3247 3247 3247 3247 3247 3247 3247 3247 3247 3247 3246 3246 3245 3245 3245 3245 3244 3244 3244
3219 3220 3221 3222 3223 3224 3225 3226 3227 3228 3229 3229 3230 3230 3231 3231 3232 3233 3234 3235 3236 3236 3237 3237 3237 3237 3238 3238 3238 3238 3238 3238 3237 3237 3236 3237 3238 3239 3239 3239 3240 3241 3241 3242 3242 3243 3243 3243 3243 3244 3244 3245 3245 3245 3246 3246 3247 3247 3247 3248 3248 3248 3249 3249 3249 3249 3248 3248 3248 3248 3248 3248 3248 3248 3247 3247 3247 3246 3246 3246 3246 3245 3245 3245 3245
3219 3220 3221 3222 3224 3225 3226 3227 3228 3228 3229 3230 3231 3231 3232 3232 3233 3233 3234 3235 3236 3237 3237 3238 3238 3238 3239 3239 3239 3239 3239 3239 3239 3238 3238 3237 3238 3240 3240 3240 3241 3242 3242 3243 3244 3245 3245 3245 3245 3245 3246 3247 3247 3247 3248 3248 3248 3248 3249 3249 3249 3249 3250 3250 3250 3250 3249 3249 3249 3249 3249 3249 3248 3248 3248 3248 3247 3247 3247 3247 3246 3246 3246 3246 3246
3219 3220 3221 3222 3224 3225 3226 3227 3228 3229 3230 3231 3231 3232 3232 3233 3233 3234 3235 3235 3236 3237 3238 3238 3239 3239 3240 3240 3240 3241 3240 3241 3241 3240 3241 3241 3241 3241 3241 3242 3241 3242 3243 3244 3245 3245 3245 3246 3246 3247 3248 3248 3248 3249 3249 3250 3250 3250 3250 3250 3250 3250 3251 3251 3251 3251 3251 3251 3250 3250 3250 3249 3249 3249 3249 3248 3248 3248 3248 3248 3247 3247 3247 3247 3246
3219 3221 3222 3223 3224 3226 3227 3228 3228 3229 3230 3231 3232 3233 3233 3233 3234 3235 3235 3236 3237 3238 3239 3239 3240 3240 3240 3241 3241 3242 3242 3242 3242 3242 3242 3243 3243 3243 3243 3243 3243 3243 3244 3245 3246 3246 3246 3247 3248 3249 3249 3250 3250 3250 3251 3251 3251 3251 3251 3251 3252 3252 3252 3252 3252 3252 3252 3252 3252 3251 3251 3250 3250 3250 3249 3249 3249 3249 3249 3249 3248 3248 3248 3248 3247
3219 3221 3222 3223 3224 3226 3227 3228 3229 3230 3230 3231 3232 3233 3234 3234 3235 3235 3236 3237 3237 3238 3239 3240 3240 3241 3241 3242 3242 3242 3243 3243 3243 3243 3243 3244 3244 3244 3245 3245 3246 3246 3246 3247 3248 3248 3248 3249 3249 3250 3250 3251 3251 3251 3251 3252 3252 3252 3252 3253 3253 3253 3253 3253 3253 3253 3253 3253 3253 3252 3252 3251 3251 3250 3250 3250 3250 3250 3250 3249 3249 3249 3249 3248 3248
3220 3221 3222 3223 3224 3226 3227 3228 3229 3230 3231 3232 3233 3233 3234 3235 3235 3236 3237 3237 3238 3239 3239 3240 3241 3241 3242 3242 3243 3243 3243 3244 3244 3244 3244 3245 3245 3246 3246 3247 3247 3248 3248 3249 3249 3250 3250 3250 3251 3251 3251 3251 3252 3252 3252 3253 3253 3253 3254 3254 3254 3254 3254 3254 3254 3254 3254 3254 3254 3253 3253 3252 3251 3251 3251 3251 3251 3251 3251 3251 3250 3250 3250 3249 3249
3220 3221 3222 3224 3225 3226 3227 3228 3229 3230 3231 3232 3233 3234 3235 3236 3236 3237 3238 3238 3239 3239 3240 3240 3241 3242 3243 3243 3243 3244 3244 3244 3245 3245 3245 3245 3246 3246 3247 3248 3248 3249 3249 3250 3250 3251 3251 3251 3251 3252 3252 3252 3253 3253 3253 3254 3254 3254 3255 3255 3255 3255 3255 3255 3255 3255 3255 3255 3255 3254 3254 3253 3253 3252 3252 3252 3252 3252 3252 3252 3252 3251 3251 3250 3250
3220 3221 3222 3224 3225 3226 3227 3228 3229 3230 3231 3232 3233 3234 3235 3236 3237 3238 3238 3239 3240 3240 3241 3241 3242 3242 3243 3244 3244 3245 3245 3245 3245 3246 3246 3246 3247 3247 3248 3248 3249 3249 3250 3250 3251 3251 3251 3252 3252 3253 3253 3253 3254 3254 3254 3255 3255 3255 3256 3256 3256 3256 3257 3257 3257 3256 3256 3256 3256 3255 3255 3254 3254 3254 3253 3253 3253 3253 3253 3253 3253 3252 3252 3252 3252
3220 3221 3222 3224 3225 3226 3227 3228 3229 3230 3231 3233 3234 3235 3236 3237 3237 3238 3239 3240 3240 3241 3241 3242 3242 3243 3244 3244 3245 3245 3246 3246 3246 3246 3247 3247 3247 3248 3249 3249 3250 3250 3250 3251 3251 3252 3252 3253 3253 3254 3254 3254 3254 3255 3255 3256 3256 3256 3256 3257 3257 3257 3257 3257 3258 3257 3257 3257 3256 3256 3256 3255 3255 3255 3255 3255 3255 3255 3254 3254 3254 3253 3253 3254 3253
3219 3221 3222 3223 3225 3226 3227 3228 3229 3230 3232 3233 3234 3235 3236 3237 3238 3239 3239 3240 3241 3241 3242 3243 3243 3243 3244 3245 3245 3246 3246 3246 3247 3247 3247 3248 3248 3249 3249 3250 3250 3251 3251 3252 3252 3253 3253 3254 3254 3255 3255 3255 3255 3256 3256 3257 3257 3257 3257 3257 3258 3258 3258 3258 3258 3258 3258 3258 3257 3257 3257 3256 3256 3256 3256 3256 3256 3256 3255 3255 3255 3255 3255 3255 3255
3220 3221 3222 3223 3225 3226 3228 3229 3230 3231 3232 3233 3234 3235 3236 3237 3238 3239 3240 3240 3241 3242 3242 3243 3243 3244 3244 3245 3246 3246 3247 3247 3247 3248 3248 3248 3249 3249 3250 3251 3251 3252 3252 3253 3253 3254 3254 3255 3255 3256 3256 3256 3256 3257 3257 3258 3258 3258 3258 3258 3258 3259 3259 3259 3259 3259 3259 3259 3258 3258 3258 3257 3257 3257 3258 3258 3257 3257 3256 3256 3257 3257 3257 3257 3257
3220 3221 3222 3223 3225 3226 3227 3228 3229 3231 3232 3233 3234 3235 3236 3237 3238 3239 3240 3241 3242 3242 3243 3243 3244 3244 3245 3245 3246 3247 3247 3247 3248 3248 3248 3249 3249 3250 3250 3251 3252 3253 3253 3254 3254 3255 3255 3255 3256 3257 3257 3257 3257 3257 3258 3258 3259 3259 3259 3259 3259 3259 3259 3259 3259 3259 3259 3259 3259 3259 3259 3258 3258 3258 3258 3258 3258 3258 3258 3258 3258 3259 3259 3259 3260
3219 3221 3222 3223 3224 3226 3227 3228 3229 3230 3232 3233 3234 3235 3236 3237 3238 3239 3240 3241 3242 3243 3243 3244 3244 3244 3245 3246 3246 3247 3247 3248 3248 3248 3249 3249 3249 3250 3251 3251 3252 3253 3254 3254 3255 3255 3256 3256 3257 3257 3257 3258 3258 3258 3258 3259 3259 3259 3259 3259 3259 3259 3260 3260 3260 3260 3260 3260 3260 3260 3260 3259 3259 3259 3259 3259 3259 3259 3259 3260 3260 3261 3261 3261 3262
3219 3221 3222 3223 3224 3225 3226 3228 3229 3230 3231 3233 3234 3235 3236 3237 3239 3240 3241 3242 3243 3243 3244 3244 3244 3245 3245 3246 3246 3247 3247 3248 3248 3249 3249 3249 3250 3250 3251 3252 3252 3253 3254 3255 3255 3256 3256 3257 3257 3257 3258 3258 3258 3258 3259 3259 3259 3260 3260 3260 3260 3260 3260 3260 3261 3261 3260 3261 3261 3260 3260 3260 3260 3260 3260 3260 3260 3261 3261 3262 3262 3263 3263 3263 3264
3219 3220 3221 3223 3224 3225 3226 3227 3229 3230 3231 3232 3234 3235 3236 3237 3239 3240 3241 3242 3243 3243 3244 3245 3245 3245 3246 3246 3247 3247 3247 3248 3248 3249 3249 3250 3250 3251 3251 3252 3253 3253 3254 3255 3256 3256 3256 3257 3257 3258 3258 3259 3259 3259 3260 3260 3260 3260 3260 3261 3261 3261 3261 3261 3261 3261 3261 3261 3261 3261 3261 3261 3261 3261 3261 3262 3262 3262 3263 3264 3264 3265 3265 3265 3265
3218 3220 3221 3223 3224 3225 3226 3227 3228 3229 3231 3232 3234 3235 3236 3237 3239 3240 3241 3242 3243 3243 3244 3245 3245 3246 3246 3246 3247 3247 3247 3248 3249 3249 3249 3250 3250 3251 3252 3252 3253 3254 3254 3255 3256 3256 3257 3257 3257 3258 3259 3259 3259 3260 3260 3260 3260 3261 3261 3261 3261 3262 3262 3262 3262 3262 3262 3262 3262 3262 3262 3262 3262 3263 3263 3263 3264 3264 3265 3265 3266 3266 3267 3267 3267
3218 3219 3221 3222 3223 3224 3225 3227 3228 3229 3231 3232 3234 3235 3236 3237 3238 3240 3241 3242 3243 3244 3244 3245 3245 3246 3246 3246 3247 3247 3248 3248 3249 3249 3249 3250 3250 3251 3252 3252 3253 3254 3254 3255 3256 3256 3257 3257 3258 3258 3259 3259 3260 3260 3261 3261 3261 3261 3262 3262 3262 3262 3262 3263 3262 3262 3262 3262 3263 3263 3263 3263 3264 3264 3264 3265 3265 3266 3267 3267 3268 3268 3268 3268 3268
3217 3219 3220 3221 3223 3224 3225 3226 3228 3229 3230 3232 3233 3235 3236 3237 3238 3239 3240 3242 3243 3243 3244 3245 3245 3246 3246 3247 3247 3248 3248 3248 3249 3249 3250 3250 3251 3251 3252 3253 3253 3254 3254 3255 3256 3256 3257 3257 3258 3258 3259 3260 3260 3261 3261 3261 3261 3262 3262 3262 3262 3263 3263 3263 3263 3263 3263 3263 3264 3264 3264 3264 3265 3265 3266 3266 3267 3268 3268 3269 3269 3269 3269 3269 3269
3216 3217 3219 3221 3222 3223 3225 3226 3227 3229 3230 3231 3232 3234 3235 3237 3238 3239 3240 3241 3242 3243 3244 3245 3245 3246 3246 3247 3247 3248 3248 3249 3249 3249 3250 3250 3251 3251 3252 3253 3253 3254 3254 3255 3256 3256 3257 3257 3258 3259 3259 3259 3260 3261 3261 3261 3262 3262 3262 3263 3263 3263 3263 3264 3264 3264 3264 3265 3265 3266 3265 3265 3266 3266 3267 3268 3268 3269 3270 3270 3270 3270 3270 3271 3271
3215 3217 3219 3220 3222 3223 3224 3226 3227 3228 3229 3230 3232 3233 3235 3236 3237 3238 3240 3241 3242 3243 3244 3245 3245 3246 3246 3247 3247 3248 3248 3249 3249 3249 3250 3250 3251 3251 3252 3253 3253 3253 3254 3255 3255 3256 3257 3257 3258 3258 3259 3259 3260 3260 3261 3261 3262 3262 3263 3263 3263 3264 3264 3264 3265 3265 3266 3267 3267 3267 3266 3266 3267 3268 3268 3269 3270 3270 3271 3271 3272 3272 3272 3272 3272
3215 3216 3218 3220 3221 3223 3224 3225 3226 3228 3229 3230 3231 3233 3234 3236 3237 3238 3240 3241 3242 3243 3244 3245 3245 3246 3246 3247 3247 3248 3249 3249 3249 3250 3250 3250 3251 3252 3252 3252 3253 3253 3254 3255 3255 3256 3257 3257 3258 3258 3259 3259 3260 3260 3260 3261 3262 3263 3263 3263 3263 3264 3264 3265 3265 3266 3266 3267 3268 3268 3268 3268 3269 3269 3270 3270 3271 3272 3272 3272 3273 3273 3273 3273 3273
3214 3216 3217 3219 3220 3222 3223 3224 3226 3227 3228 3229 3231 3232 3234 3235 3237 3238 3239 3240 3241 3242 3243 3244 3245 3245 3246 3247 3247 3248 3249 3249 3249 3250 3250 3251 3251 3252 3252 3253 3253 3253 3254 3255 3255 3256 3256 3257 3257 3258 3259 3259 3260 3260 3260 3261 3262 3263 3263 3263 3264 3265 3265 3265 3266 3266 3267 3267 3268 3269 3269 3269 3270 3270 3271 3271 3272 3273 3273 3273 3274 3274 3274 3274 3274
3213 3215 3216 3218 3219 3221 3222 3224 3225 3226 3228 3229 3230 3232 3233 3235 3236 3237 3239 3240 3240 3242 3243 3244 3245 3245 3246 3247 3247 3248 3249 3249 3250 3250 3250 3251 3251 3252 3252 3253 3253 3254 3254 3255 3255 3256 3256 3257 3257 3258 3258 3259 3260 3260 3260 3261 3262 3262 3263 3263 3264 3265 3265 3266 3266 3267 3267 3268 3268 3269 3270 3270 3271 3271 3272 3272 3273 3274 3274 3274 3275 3275 3275 3275 3274
3212 3214 3215 3217 3219 3220 3221 3223 3224 3226 3227 3228 3230 3231 3232 3234 3235 3237 3238 3239 3240 3241 3242 3243 3244 3245 3246 3246 3247 3248 3249 3249 3250 3250 3251 3251 3252 3252 3253 3253 3254 3254 3254 3255 3255 3256 3256 3256 3257 3257 3258 3259 3259 3260 3260 3261 3261 3262 3263 3264 3264 3265 3265 3266 3267 3267 3268 3268 3269 3270 3270 3271 3271 3272 3272 3273 3274 3274 3275 3275 3276 3276 3276 3275 3275
3211 3213 3215 3216 3217 3219 3220 3222 3223 3225 3226 3228 3229 3230 3232 3233 3234 3236 3237 3239 3240 3241 3242 3243 3244 3245 3246 3246 3247 3248 3249 3249 3250 3250 3251 3252 3252 3253 3253 3253 3254 3254 3255 3255 3256 3256 3256 3257 3257 3257 3258 3258 3259 3260 3260 3261 3261 3262 3263 3264 3265 3265 3265 3266 3266 3267 3268 3268 3269 3270 3271 3271 3272 3273 3273 3274 3275 3275 3276 3276 3276 3276 3276 3276 3276
3209 3211 3213 3215 3216 3218 3219 3221 3222 3224 3225 3227 3228 3230 3231 3232 3234 3235 3237 3238 3239 3240 3241 3243 3244 3245 3246 3246 3247 3247 3248 3249 3249 3250 3251 3252 3252 3253 3253 3253 3254 3254 3255 3255 3256 3256 3256 3257 3257 3257 3258 3258 3259 3259 3260 3261 3261 3262 3263 3264 3265 3265 3265 3266 3267 3267 3268 3268 3269 3270 3271 3271 3272 3273 3274 3275 3275 3276 3276 3276 3277 3277 3277 3277 3276
Wind_Speed
25 23 24 24 23 21 20 20 21 21 20 19 19 19 18 17 16 14 13 12 10 9 8 7 5 4 3 1 1 1 1 1 1 1 1 0 1 2 2 1 1 1 1 0 0 0 1 1 1 1 1 2 2 2 3 3 3 4 4 4 5 4 5 4 4 8 10 11 12 11 11 12 12 11 13 14 15 15 15 15 16 15 15 15 15
25 24 24 22 22 21 21 21 22 22 20 20 19 18 17 16 14 13 11 10 9 7 6 5 3 2 1 0 1 2 2 1 1 2 1 0 1 3 3 2 1 1 1 0 1 0 0 0 1 1 1 2 2 2 2 2 2 3 3 3 4 3 4 3 4 9 10 10 11 11 11 11 11 12 14 14 16 15 15 15 15 16 15 15 15
25 24 24 22 21 21 21 22 23 22 21 20 19 18 16 14 13 11 9 8 7 5 4 2 2 1 0 1 2 3 3 2 2 2 1 1 2 3 4 3 2 2 1 1 2 1 1 1 1 2 1 2 2 2 3 3 3 3 3 3 4 4 4 3 5 10 11 10 11 11 12 12 12 12 14 15 16 15 15 15 15 16 15 15 15
24 23 23 21 20 20 21 22 22 21 21 20 18 17 15 13 11 9 8 6 5 3 2 1 0 1 1 2 3 4 4 3 3 2 2 2 3 3 5 4 2 2 3 3 3 3 3 2 3 3 2 3 3 3 3 4 3 3 3 3 4 4 4 4 7 11 11 10 11 11 12 13 12 12 14 16 16 15 15 15 15 15 15 15 15
23 22 21 21 20 21 21 22 21 21 20 19 17 16 14 11 9 8 6 5 3 1 0 0 0 1 1 2 3 3 3 3 3 3 4 3 3 5 6 4 3 2 3 4 5 5 6 5 5 4 4 3 2 2 3 2 2 3 3 4 4 4 6 6 8 11 11 10 11 12 12 13 13 12 14 15 15 14 14 15 15 15 15 15 14
21 21 20 20 22 22 21 21 21 20 19 17 16 14 12 10 8 6 5 3 2 1 1 1 1 1 1 2 2 3 3 3 4 3 3 2 6 5 5 5 4 3 3 5 6 6 6 6 6 5 4 4 2 2 2 2 3 3 4 4 5 5 8 8 9 11 11 11 12 13 12 13 13 13 14 14 14 14 14 15 15 14 15 15 14
20 20 20 20 21 22 21 21 20 18 16 15 13 12 10 8 7 5 4 3 2 2 2 2 2 1 1 2 2 2 2 3 3 2 1 6 8 7 6 6 6 4 4 4 5 5 5 6 6 6 5 5 4 3 4 4 4 4 5 6 7 8 10 9 9 9 12 13 13 14 13 13 13 13 14 13 14 14 15 15 14 14 15 15 14
20 19 19 19 20 20 19 19 18 16 14 13 11 10 8 7 6 4 3 3 3 3 3 3 3 3 2 3 3 2 2 2 1 2 2 8 10 10 8 8 8 7 6 5 5 5 5 6 7 7 5 6 6 6 6 6 5 6 7 8 9 10 10 10 9 8 10 14 14 14 14 14 14 14 14 14 15 15 15 15 14 14 14 14 13
19 18 18 18 18 18 18 17 16 14 13 11 10 8 7 6 5 4 4 4 4 5 5 4 4 4 4 5 5 4 3 3 1 2 4 9 11 12 10 10 10 9 7 6 5 5 5 5 6 7 6 6 7 7 7 7 7 8 9 10 11 11 11 10 10 10 11 13 13 14 15 15 15 15 15 16 17 16 16 15 13 13 14 14 12
19 18 18 18 18 18 17 16 14 13 11 10 8 7 6 5 4 5 5 5 6 7 6 5 5 6 5 6 7 7 5 4 2 2 6 10 13 13 11 11 10 10 8 6 5 6 5 5 6 7 7 7 7 7 8 8 8 9 11 12 12 12 12 12 11 11 11 13 14 15 16 16 16 15 16 17 17 17 17 15 13 12 13 13 12
19 17 17 17 18 17 16 15 13 11 10 8 7 6 4 4 5 6 6 6 7 7 6 6 7 6 6 7 8 8 6 6 5 5 8 12 15 15 13 12 11 10 8 7 6 5 5 5 5 6 6 6 7 8 8 9 9 11 12 13 13 13 13 13 13 12 12 14 15 16 16 17 16 15 16 16 17 17 17 15 14 12 12 12 11
18 17 16 16 16 16 15 13 12 10 9 7 6 4 4 5 7 7 7 7 7 7 7 7 7 7 6 7 7 7 7 6 7 8 10 13 15 15 13 12 11 10 8 7 6 6 6 6 6 6 6 7 8 9 10 11 12 13 14 14 13 14 14 13 13 13 14 15 16 16 16 16 15 15 16 16 16 16 16 15 14 13 12 12 11
17 16 15 15 15 14 13 12 11 9 8 6 5 4 5 6 7 8 8 8 7 7 8 8 8 7 7 7 7 7 7 7 9 10 11 12 14 14 13 12 11 10 8 8 8 9 9 9 10 9 9 10 11 13 14 14 14 14 14 14 15 16 15 14 14 14 15 16 16 17 16 15 15 15 15 15 15 15 15 15 14 13 12 11 11
16 16 15 15 14 13 12 11 9 8 7 6 4 4 6 7 8 9 9 8 8 8 9 9 8 7 7 7 8 8 7 9 11 12 13 13 14 14 13 12 11 10 10 10 11 12 13 13 14 13 13 14 16 17 17 16 16 16 15 17 17 16 15 14 15 16 16 16 16 16 15 15 15 15 15 14 14 14 14 14 14 13 12 11 10
14 15 14 14 13 12 11 10 8 7 6 5 5 5 7 7 8 9 9 9 9 9 10 9 8 8 8 8 9 9 8 10 13 13 14 14 14 13 12 12 12 12 12 12 13 14 15 16 17 17 16 17 18 19 19 18 17 17 18 18 18 16 16 15 16 17 16 16 16 16 15 14 14 15 14 14 13 14 14 14 14 13 12 11 10
14 14 13 13 12 11 10 9 8 6 6 5 6 7 7 7 9 9 9 10 9 9 10 9 9 8 8 9 9 9 10 11 13 14 14 14 14 13 13 13 13 13 13 12 14 16 16 17 19 19 18 19 19 20 20 19 18 19 19 18 17 17 16 16 17 16 15 15 16 15 15 14 13 14 14 13 13 13 14 14 14 13 12 11 10
15 14 13 12 11 10 9 8 7 7 7 7 7 8 7 7 9 9 9 10 9 9 9 10 9 8 9 9 9 10 10 11 12 13 14 14 14 14 15 16 14 13 12 12 15 16 17 18 19 19 19 20 20 20 20 20 19 19 19 18 17 17 17 18 17 15 15 16 16 15 14 13 13 13 13 12 12 13 13 13 13 13 12 11 10
15 14 12 11 10 9 8 7 7 8 9 9 8 8 9 8 9 8 8 9 9 9 10 11 10 9 9 10 10 10 11 12 12 12 14 15 14 14 16 16 15 14 13 13 16 17 17 19 19 19 19 20 20 20 20 20 19 19 18 18 17 17 17 18 16 15 15 15 15 14 13 12 12 12 12 12 12 12 13 12 12 12 11 11 10
15 14 12 11 9 8 8 7 8 10 11 11 10 10 10 10 9 8 8 9 9 10 10 11 11 11 11 11 11 11 12 12 14 14 15 16 15 15 16 16 15 15 15 16 17 17 18 19 19 19 19 20 20 20 20 19 18 18 18 17 18 17 17 17 15 14 14 14 13 13 12 11 11 12 12 12 12 12 12 11 11 10 10 10 10
15 14 12 11 10 9 10 9 9 9 10 11 11 11 11 10 10 9 10 10 11 11 11 12 12 13 13 13 12 12 12 12 14 15 16 17 16 17 17 16 15 15 16 18 18 18 18 18 19 19 19 19 19 19 19 18 17 17 17 17 17 16 15 15 14 13 13 13 13 12 11 11 11 11 11 10 11 11 11 10 10 9 9 9 9
15 14 13 12 11 11 11 10 10 9 9 11 12 12 12 11 11 11 12 12 12 12 12 13 13 14 14 14 13 13 13 12 13 15 15 17 18 19 19 17 16 15 17 18 18 17 17 17 18 18 18 18 18 18 17 17 16 16 15 15 15 14 13 13 13 12 12 12 12 11 10 10 11 11 10 9 10 10 9 9 9 8 8 8 8
15 15 14 13 13 13 12 11 11 11 11 12 12 12 12 12 11 12 13 13 13 13 13 14 14 14 15 15 14 13 13 13 13 14 14 15 17 19 21 20 17 16 16 16 17 17 17 17 16 16 16 16 17 17 16 16 15 15 14 13 13 12 12 12 11 11 10 11 11 10 9 9 9 10 9 9 9 9 9 8 8 7 7 8 9
15 15 15 15 15 14 12 11 11 12 12 12 12 12 12 12 12 13 14 14 14 14 14 14 14 14 15 15 15 14 14 13 13 13 13 14 16 17 20 21 19 17 16 15 16 17 17 16 15 15 15 14 14 15 15 14 14 14 12 12 11 11 11 11 10 9 9 9 9 9 8 8 8 9 8 8 8 9 9 8 7 6 7 9 9
15 16 16 17 16 14 13 12 12 12 13 12 12 12 11 12 13 13 14 14 14 14 14 14 13 14 14 16 16 15 14 13 13 13 12 14 15 14 17 20 20 19 17 16 15 15 15 15 14 15 15 13 13 13 13 12 12 12 11 11 10 9 9 9 8 7 8 8 7 7 7 8 8 8 8 8 8 8 8 7 6 7 8 9 8
16 17 17 18 16 14 13 13 13 13 13 12 12 11 11 12 12 13 14 14 14 14 14 14 13 13 13 15 15 15 14 13 12 11 11 14 15 13 15 18 20 20 19 17 15 14 14 14 14 14 14 12 12 12 11 10 10 10 9 9 8 8 7 7 6 6 7 6 6 6 6 6 7 7 8 9 8 7 7 7 7 8 8 8 9
16 18 19 19 16 14 13 13 13 13 13 12 12 12 11 11 12 12 13 14 13 13 13 13 13 12 13 14 15 15 15 13 12 11 11 13 15 15 15 16 19 19 19 18 16 15 14 14 14 14 14 13 12 12 11 10 10 10 10 9 8 8 8 7 7 6 7 7 6 6 7 7 7 8 9 8 7 7 7 7 8 8 8 8 9
16 19 20 19 16 14 13 13 13 13 13 12 12 13 12 11 11 11 12 13 12 12 12 12 12 13 13 13 14 15 14 13 13 13 13 13 15 15 15 15 17 18 19 18 16 15 15 15 14 14 14 14 13 13 13 12 12 12 12 11 11 11 10 10 10 9 10 10 9 9 9 9 9 9 8 7 7 7 8 8 7 7 7 8 9
16 19 20 18 15 13 13 13 13 14 13 13 12 13 12 11 11 11 11 12 12 12 12 12 12 12 13 13 14 14 14 13 13 13 13 14 14 15 14 14 14 15 16 16 14 15 15 15 15 14 14 14 14 14 14 14 14 13 13 13 12 12 12 11 11 12 11 12 12 11 10 10 9 8 7 7 7 8 8 7 7 7 7 8 9
16 18 19 17 15 13 13 12 13 14 13 12 12 13 12 12 11 11 11 11 11 11 11 11 12 12 12 13 13 13 13 13 13 13 13 14 14 14 14 13 13 14 14 14 13 13 14 13 14 14 14 14 14 14 14 14 14 13 13 13 12 12 12 11 12 11 11 11 11 10 10 9 8 8 8 8 8 7 7 6 7 7 8 9 9
16 18 18 17 15 14 13 12 13 14 13 12 12 13 12 12 12 11 11 11 11 11 11 11 11 12 12 12 12 13 13 12 13 12 12 13 13 13 14 13 13 13 13 13 13 12 13 13 13 13 13 13 14 13 13 14 13 13 13 12 11 11 11 12 12 11 10 10 9 9 9 8 8 8 8 8 7 6 6 6 7 8 9 9 10
17 18 18 17 16 15 14 13 13 13 13 12 12 13 12 12 12 11 11 11 11 10 10 10 11 11 11 11 11 11 12 11 12 12 12 12 12 13 13 13 13 13 13 13 12 12 12 12 12 12 12 13 13 13 13 13 13 13 12 11 11 11 11 12 11 10 10 9 8 8 7 7 7 7 7 6 6 6 6 7 8 8 9 9 10
16 18 17 16 16 15 14 13 13 13 12 12 12 12 12 12 12 11 11 10 10 10 10 9 10 11 10 10 10 10 10 10 10 11 11 11 11 12 12 12 12 12 12 12 11 11 11 11 12 12 12 12 12 12 13 13 13 12 12 11 11 11 12 12 11 10 9 9 7 6 5 5 6 6 6 5 5 6 7 8 8 9 9 10 12
17 18 17 16 16 15 15 14 13 13 12 12 12 12 12 12 12 11 10 10 10 10 10 9 9 10 9 9 9 9 9 10 10 10 10 11 11 11 11 11 11 11 11 11 11 10 10 11 11 11 11 12 12 12 12 13 12 11 11 10 10 10 11 11 11 10 9 8 7 6 5 4 5 5 5 5 6 7 7 8 8 9 10 13 15
16 18 18 17 15 15 15 14 14 14 13 12 12 12 13 12 12 11 11 10 9 9 9 8 8 9 8 8 7 8 8 9 9 9 10 10 10 10 10 10 10 10 10 9 9 10 10 10 10 10 10 11 12 11 11 11 11 10 10 9 9 9 9 10 10 10 9 8 6 6 5 5 5 5 5 6 7 8 8 9 9 11 13 15 16
16 18 18 17 16 15 14 14 14 14 13 12 12 12 13 12 12 11 11 9 9 8 8 8 8 8 7 7 7 7 8 8 8 9 10 10 10 10 10 10 10 10 10 9 9 9 9 9 9 9 9 11 11 11 10 10 10 9 9 8 8 8 9 9 9 9 8 7 6 5 5 5 5 5 5 7 7 8 9 10 11 13 15 16 17
16 17 18 17 16 15 15 15 15 14 13 12 12 12 12 12 12 11 10 9 8 7 7 7 7 7 6 6 6 6 7 8 8 9 9 10 10 10 10 10 10 10 10 9 8 8 8 9 8 8 8 10 11 11 10 9 9 9 9 8 8 8 9 9 9 8 7 7 6 6 5 4 4 4 6 7 7 8 10 11 13 15 16 17 17
16 17 18 17 16 15 15 15 16 15 14 12 12 12 12 12 12 11 9 8 7 6 5 5 6 6 6 5 5 5 6 7 8 9 9 9 9 9 10 10 10 10 10 9 8 8 9 9 8 8 8 8 10 11 10 9 9 9 9 8 8 8 9 8 8 8 7 7 6 6 5 4 4 5 7 8 8 9 11 13 15 16 17 17 16
16 17 17 17 16 15 15 16 16 16 15 13 13 12 12 11 11 10 9 8 7 6 5 4 5 5 5 5 5 4 5 6 7 8 8 8 8 9 9 10 10 10 10 10 9 8 9 9 8 7 7 7 8 10 9 9 8 8 8 8 7 7 8 8 8 7 7 7 6 5 4 4 5 6 8 9 10 11 12 14 16 17 17 15 13
17 17 17 17 17 16 16 16 16 17 16 14 13 13 12 12 11 10 9 8 7 6 5 4 4 4 4 4 4 4 5 6 7 7 7 8 8 8 9 10 10 9 9 9 9 9 8 9 8 8 8 8 8 9 9 9 8 8 7 7 7 7 7 8 8 8 8 7 6 5 4 6 7 8 10 10 10 12 14 16 17 16 15 13 11
17 18 17 17 17 16 16 16 16 16 16 14 13 12 13 12 11 9 8 8 7 6 6 5 4 4 4 4 5 4 5 6 6 7 7 7 7 8 8 9 10 10 8 9 9 8 8 9 8 8 8 8 8 9 9 9 8 7 7 7 7 7 8 8 8 8 8 7 6 5 5 7 9 10 11 11 12 14 16 16 16 14 13 11 10
17 17 17 17 17 16 16 16 15 15 15 14 12 12 12 12 11 9 8 8 8 7 6 6 5 5 4 5 5 5 6 6 6 6 7 7 7 7 8 9 10 10 9 9 9 8 8 8 8 7 7 7 7 8 8 8 8 7 6 7 7 8 9 9 8 8 8 8 7 7 7 9 10 11 11 12 13 15 16 16 14 12 11 10 9
17 17 17 17 17 17 16 16 15 15 14 13 12 12 12 12 12 10 9 8 8 7 6 6 5 5 5 6 6 6 6 6 6 6 6 7 7 7 8 9 10 10 10 10 9 8 7 7 7 7 7 6 6 7 7 7 7 7 6 6 7 8 9 8 7 8 8 7 8 8 9 10 11 11 12 13 15 16 15 14 12 11 10 10 9
17 17 17 17 17 17 17 16 15 15 14 13 13 13 13 13 13 12 11 10 9 8 7 6 5 5 6 7 7 7 7 6 6 6 6 6 7 6 7 8 9 9 10 10 9 9 8 7 6 6 7 6 6 6 6 6 7 8 6 5 6 8 8 8 8 9 8 8 8 8 9 10 10 11 12 13 15 15 14 12 11 10 9 9 9
18 18 17 17 17 17 17 16 15 15 15 14 14 14 14 14 14 13 12 11 10 9 7 6 5 5 6 7 7 7 7 7 6 6 6 6 6 6 7 8 9 9 9 9 9 9 9 8 6 6 6 6 6 6 5 5 7 8 6 5 6 7 7 8 8 9 9 8 7 7 9 11 11 12 12 13 15 15 13 11 9 9 9 8 9
19 18 18 17 17 16 16 16 16 15 15 15 15 15 15 15 15 14 12 11 10 8 7 6 5 5 5 6 7 7 7 7 6 6 6 7 7 6 6 7 8 8 8 9 9 9 9 8 7 6 6 6 6 6 5 5 5 7 6 5 5 6 6 7 7 8 8 7 6 6 10 12 11 12 13 13 15 14 12 10 9 8 8 8 9
21 19 18 17 16 16 17 16 16 16 16 15 16 16 16 15 15 13 11 10 9 8 7 6 6 6 6 6 6 6 6 6 6 6 6 7 7 6 6 6 7 7 8 8 8 8 9 8 7 7 7 6 5 6 6 5 4 6 7 5 5 5 5 6 6 7 8 9 8 6 7 11 11 11 13 13 14 13 11 10 8 8 8 8 9
22 20 19 18 17 17 17 17 16 16 17 16 16 16 16 15 15 14 12 11 10 9 8 8 8 7 7 6 6 6 6 6 6 6 6 6 6 6 6 6 6 6 7 7 7 8 8 8 7 7 7 6 6 6 6 6 5 5 6 5 5 4 5 6 6 7 7 9 10 6 6 10 11 11 12 13 13 12 10 9 8 7 7 8 8
23 22 20 19 17 17 17 17 17 17 17 16 15 15 15 16 15 14 14 13 12 11 10 10 9 8 7 7 7 6 6 6 6 6 6 6 6 6 6 6 6 6 7 7 7 7 7 7 7 7 7 7 6 6 6 6 5 5 5 4 5 4 5 6 7 8 8 8 9 8 8 10 11 12 13 13 13 11 9 8 7 7 6 6 7
24 23 21 20 18 18 17 17 17 17 18 17 16 15 15 16 16 15 14 14 14 13 12 11 10 8 8 8 8 7 6 6 6 6 6 6 6 6 6 6 6 6 7 8 8 7 7 7 6 6 7 7 7 6 6 6 6 6 5 4 4 4 5 6 7 9 10 10 9 7 8 11 11 12 13 13 12 11 9 8 7 6 5 5 7
25 24 22 21 20 19 18 18 17 17 17 17 16 16 16 17 17 16 15 15 15 14 13 12 10 9 9 9 9 8 7 7 6 6 6 6 6 6 6 6 6 6 7 7 8 7 7 6 6 6 6 7 7 6 6 7 7 6 5 5 5 4 4 6 8 9 10 12 11 7 7 10 11 12 13 13 12 11 9 8 6 4 4 5 7
26 25 23 23 22 21 20 18 18 17 17 18 17 17 16 17 17 16 16 15 15 14 13 12 10 10 9 10 10 9 8 7 7 6 6 6 6 6 6 6 5 5 5 6 7 7 6 5 5 5 6 6 7 7 7 7 7 6 6 6 6 5 5 6 8 10 10 12 12 9 9 12 12 12 13 12 12 10 9 7 5 3 3 5 7
Wind_Direction
137 134 132 133 131 129 127 129 131 128 124 123 123 122 120 119 120 123 123 123 120 112 105 101 96 92 92 93 100 113 106 57 1 342 324 228 203 187 186 187 171 162 143 124 93 346 316 342 11 5 44 97 107 90 90 83 61 50 47 50 48 42 51 66 94 90 85 84 85 86 83 81 78 76 74 71 70 73 76 80 82 81 78 76 75
136 135 133 133 131 128 129 132 132 129 126 124 124 123 123 124 126 127 126 121 113 108 107 109 109 103 96 121 200 199 202 239 305 321 306 215 187 171 161 165 160 100 78 84 117 117 320 309 24 23 60 111 121 98 93 96 76 61 56 47 49 54 58 62 100 94 92 94 91 91 89 85 79 75 72 70 70 73 77 79 83 81 78 76 77
135 137 135 133 131 129 131 133 132 130 127 126 127 127 127 128 130 128 121 113 108 111 113 108 97 71 36 230 218 216 224 248 286 310 305 149 170 163 136 118 103 102 163 226 193 166 151 155 106 93 127 126 122 113 99 90 88 94 85 61 66 71 67 75 103 95 96 98 92 92 92 84 76 73 71 70 72 75 79 79 81 81 78 77 78
137 137 135 133 132 131 132 132 131 129 127 128 129 129 129 131 129 122 115 113 116 118 107 75 15 286 240 226 218 214 229 257 279 290 263 191 163 126 94 87 101 168 218 219 182 168 161 147 131 137 147 119 112 119 106 94 96 104 96 83 81 73 77 99 108 101 101 98 90 89 85 78 72 71 72 73 75 78 80 79 78 79 79 79 79
138 136 135 135 135 133 133 133 131 130 130 131 131 130 130 129 123 117 114 113 112 108 76 335 282 237 218 222 225 222 233 255 262 249 233 193 122 87 82 105 136 169 198 186 174 170 160 150 152 156 139 119 114 115 105 109 111 107 105 90 80 78 96 113 113 108 107 99 90 85 79 78 78 77 77 77 77 79 80 79 78 79 81 81 80
138 136 135 135 135 134 134 134 133 131 131 130 128 126 124 121 115 110 104 99 90 73 60 46 71 120 172 199 209 213 222 236 247 231 217 90 81 83 98 139 147 134 157 175 176 174 165 153 154 151 137 134 134 122 118 126 121 119 115 97 89 100 113 121 115 114 120 113 97 88 83 81 81 83 82 80 79 80 79 79 80 82 84 84 82
140 138 137 135 134 134 134 133 131 129 126 125 123 121 118 113 107 100 92 86 81 76 73 75 85 103 142 174 174 179 202 216 244 245 148 77 87 96 107 137 138 134 148 159 159 161 161 154 153 145 136 134 130 136 134 121 119 125 118 106 108 116 121 121 114 122 126 113 99 92 89 83 81 83 83 81 80 80 81 81 82 83 86 85 84
141 140 139 138 136 134 132 129 127 125 123 123 120 116 110 103 95 85 83 83 79 77 78 82 90 101 117 121 122 120 145 160 235 282 70 82 93 98 109 126 126 134 141 133 132 134 133 140 143 135 128 126 126 133 132 120 120 124 118 114 117 121 123 121 115 113 102 92 90 92 93 90 85 85 84 82 79 79 81 82 82 85 87 87 86
142 141 139 140 139 135 132 129 127 127 125 122 118 111 102 93 81 77 80 81 76 70 72 76 83 88 90 89 89 88 93 102 73 324 69 84 91 98 107 113 118 129 130 123 121 119 117 124 127 124 122 123 122 121 124 121 118 119 119 119 119 122 124 122 114 103 88 81 86 91 95 96 93 90 86 82 77 77 78 80 83 86 88 89 91
143 142 140 142 141 138 135 132 131 129 126 121 114 107 99 87 80 83 79 74 71 70 73 71 74 77 79 81 80 81 83 81 57 31 76 87 92 101 106 104 108 116 117 122 121 116 118 124 121 119 119 120 120 118 123 122 119 119 121 121 120 123 124 121 113 105 95 89 90 91 93 96 96 91 85 80 77 76 76 80 85 86 88 91 93
145 144 143 144 142 141 139 135 135 131 125 119 114 110 100 93 92 89 77 71 70 73 77 70 67 69 72 75 75 76 76 78 73 59 69 83 92 100 105 104 107 112 115 119 122 122 121 121 120 122 126 123 118 121 127 127 125 124 123 122 122 124 124 121 115 107 97 94 95 95 94 95 93 89 84 81 78 76 77 80 83 84 85 88 91
146 145 144 144 143 143 139 137 136 130 124 120 118 113 100 97 95 87 75 68 67 74 80 73 66 63 62 65 69 69 68 75 80 74 70 78 89 97 100 104 109 110 110 111 118 127 124 119 120 128 133 127 120 123 129 130 129 125 123 123 125 125 122 119 112 104 99 99 101 100 98 95 91 87 85 82 79 78 78 79 81 82 82 85 88
147 144 145 146 145 144 141 140 137 130 127 126 124 116 103 96 89 84 77 68 67 77 83 79 69 65 66 66 66 62 63 72 80 83 80 80 86 95 98 99 99 96 100 106 113 117 116 115 121 125 122 121 121 123 127 130 128 123 122 125 126 124 120 116 108 104 105 104 103 101 100 97 91 87 86 84 82 79 77 76 77 78 79 81 83
148 145 146 148 146 146 146 144 138 133 133 129 121 110 99 90 84 85 84 80 80 84 87 86 77 71 72 70 68 63 63 72 81 87 88 89 91 97 99 95 93 91 95 99 101 102 101 104 113 116 114 118 123 126 128 128 126 123 124 126 125 122 118 113 108 109 109 106 103 100 98 94 92 90 89 87 83 78 75 72 71 71 73 76 79
148 146 147 151 150 152 152 146 141 138 134 127 118 106 97 88 88 92 91 89 86 87 91 92 85 78 77 73 70 68 65 72 84 91 93 97 100 100 98 96 97 98 98 97 95 95 97 102 108 111 114 119 124 127 127 123 121 122 124 124 122 121 120 114 112 112 110 106 103 101 97 94 94 93 90 86 82 77 73 70 68 66 68 73 76
150 151 153 156 157 159 155 148 146 141 132 128 120 106 98 92 94 97 96 95 91 90 93 93 88 83 80 72 67 68 70 77 87 94 97 102 103 101 98 96 100 104 104 102 97 97 99 102 106 110 114 117 121 123 121 118 118 119 121 123 124 126 124 116 113 112 110 108 104 102 99 97 96 93 89 85 81 76 72 68 66 64 65 69 72
154 157 160 161 161 162 154 152 152 143 140 135 125 110 104 98 97 100 100 99 96 92 92 90 85 80 77 71 67 70 78 83 89 97 102 105 105 101 98 99 103 108 107 103 101 101 103 105 108 112 114 116 117 118 116 117 118 120 123 126 127 128 123 116 114 113 110 107 103 102 101 101 97 91 89 86 80 75 71 67 65 65 66 68 70
158 160 162 163 162 156 149 157 154 142 141 135 126 117 111 103 99 102 101 99 99 94 90 86 80 75 74 75 74 79 86 89 93 102 107 108 107 103 102 105 110 116 114 108 106 106 106 106 110 112 113 113 113 114 115 117 119 122 125 126 125 122 118 114 114 111 107 103 103 105 106 106 100 95 92 87 80 74 69 65 65 65 67 71 71
159 161 160 160 158 149 152 162 154 146 140 132 127 119 112 107 103 104 101 101 104 96 86 83 80 76 77 82 85 88 91 94 98 102 107 107 106 105 105 107 110 117 118 114 111 111 108 107 109 111 112 112 113 113 115 117 119 122 124 123 121 116 113 112 112 110 108 107 112 113 111 109 102 96 91 87 81 76 71 66 64 64 66 71 71
160 161 158 156 154 153 156 156 149 146 132 122 120 116 113 109 106 106 105 105 104 97 89 86 85 84 86 89 93 95 93 96 102 102 105 106 104 104 104 103 104 112 117 114 112 111 109 109 110 112 113 113 114 114 115 116 118 121 123 123 119 114 113 115 116 117 118 121 122 118 113 107 98 91 86 84 80 75 71 66 63 63 68 72 73
162 160 158 155 156 157 155 148 144 139 125 117 115 117 116 111 108 108 108 105 102 97 92 89 89 90 90 92 94 97 97 99 101 100 102 104 105 103 100 99 103 113 116 115 113 111 110 109 109 111 113 115 114 113 114 115 118 121 123 123 117 114 118 120 122 123 124 124 120 115 109 102 94 89 85 80 75 73 71 68 65 65 73 76 74
164 159 159 158 156 155 151 145 141 138 130 121 119 122 119 115 114 111 107 104 101 96 92 91 91 91 92 95 95 96 98 100 96 94 97 100 101 99 99 101 106 111 113 115 114 111 110 109 107 109 111 114 114 114 114 116 117 118 120 118 113 116 121 120 120 121 120 117 113 108 102 98 94 91 85 78 74 73 74 73 69 69 77 76 69
163 159 160 159 156 152 149 144 141 138 131 124 122 124 121 119 118 115 109 104 102 99 95 93 90 90 92 95 96 96 97 99 96 94 96 97 96 97 101 105 110 111 109 111 111 111 111 111 112 111 109 109 109 111 113 114 114 114 113 109 109 114 115 112 113 114 114 111 109 106 101 97 93 89 84 80 79 76 75 76 76 76 74 68 60
162 161 161 157 154 150 146 142 141 139 132 128 126 125 125 124 121 119 115 109 106 104 100 95 90 88 90 93 98 100 99 99 97 98 100 99 98 97 100 104 110 113 112 109 108 109 112 114 114 111 106 105 106 107 109 110 110 108 106 104 106 106 105 106 109 113 113 110 111 111 102 96 92 89 85 85 85 81 79 80 81 73 63 58 55
163 161 160 156 153 148 145 142 142 140 134 130 128 128 129 128 124 120 118 114 111 107 105 101 97 94 92 94 100 102 103 101 99 103 107 107 108 104 97 101 108 112 112 109 108 107 109 111 111 109 106 106 108 107 107 109 107 104 102 102 102 102 103 106 110 113 115 116 118 113 106 99 97 94 91 92 91 89 89 85 76 66 59 56 55
166 162 159 157 155 149 146 145 144 141 135 134 134 133 133 130 126 121 118 116 113 108 106 103 102 102 101 100 101 103 103 102 102 100 99 98 102 103 97 101 108 112 111 108 109 108 107 108 108 109 110 111 111 109 109 110 108 105 104 103 103 105 106 107 108 106 108 115 116 113 114 111 106 100 97 100 101 98 90 79 72 66 61 55 51
166 163 162 159 156 152 150 148 146 142 137 139 140 136 135 134 129 123 120 118 115 109 105 104 104 106 107 107 105 105 105 104 103 97 92 87 89 95 97 101 108 112 111 108 109 110 109 108 107 107 108 110 110 110 111 108 106 105 104 104 103 103 104 103 101 97 96 98 99 102 107 107 106 105 106 109 106 97 87 79 74 66 57 52 53
167 164 163 161 158 155 153 150 147 144 140 141 141 138 136 135 131 127 124 121 116 112 109 108 108 109 111 111 110 110 109 107 106 102 99 97 95 96 97 98 100 102 104 106 109 108 107 107 108 109 110 111 110 109 107 105 103 101 100 99 98 97 96 94 90 88 87 88 92 96 100 103 106 110 113 106 96 90 86 82 73 62 55 58 64
167 165 165 163 161 159 154 151 150 147 143 143 143 140 138 137 135 131 129 124 119 117 114 111 111 112 113 115 115 115 114 112 110 107 103 101 100 100 100 101 101 101 103 107 109 109 110 110 112 114 115 114 112 109 106 103 101 99 97 95 94 92 91 88 84 82 83 85 89 93 98 103 108 110 107 100 94 89 84 76 66 61 63 68 74
169 167 168 166 164 162 158 154 153 151 146 146 147 144 143 141 137 136 134 128 123 121 117 115 115 117 117 117 117 116 116 117 115 111 108 104 103 103 105 107 109 112 113 113 114 115 117 117 117 116 114 112 110 109 106 103 101 100 98 96 93 90 87 83 81 79 80 84 87 92 99 102 105 104 100 98 94 87 79 72 68 69 74 77 78
172 170 169 169 167 164 161 158 155 155 151 149 150 149 147 143 139 139 138 133 129 124 120 119 119 120 122 121 118 117 116 117 117 116 114 111 109 109 109 111 113 117 120 120 120 121 121 120 119 114 111 108 107 107 105 103 102 101 98 95 91 87 83 80 79 78 78 83 85 89 96 101 104 102 100 97 90 82 76 74 76 78 81 82 83
174 172 171 171 167 165 164 162 159 157 156 152 151 152 150 146 142 143 143 138 133 127 123 125 123 120 122 123 121 120 119 120 121 121 120 118 116 115 114 113 113 114 117 119 121 123 122 120 117 113 109 106 105 104 103 102 102 101 96 91 86 83 80 78 78 76 75 78 80 83 88 97 102 101 97 92 86 82 80 81 84 86 87 87 88
174 173 170 171 169 168 167 166 162 159 160 157 153 154 152 149 147 146 145 141 134 129 129 129 127 122 119 121 121 122 124 125 125 124 124 123 122 122 122 119 115 113 112 115 119 121 120 118 117 113 108 105 105 105 102 101 101 98 95 91 85 80 77 75 74 73 72 72 76 81 84 83 85 89 92 92 90 86 86 90 91 91 90 91 94
173 173 170 170 171 170 169 167 164 160 163 161 156 157 155 154 152 150 147 142 136 132 131 130 127 123 119 118 120 123 125 127 129 129 129 128 129 130 130 128 122 118 116 116 118 117 116 116 117 114 110 107 105 105 103 101 101 97 95 92 84 78 75 73 71 70 70 71 76 83 85 81 76 78 82 85 89 91 94 97 97 95 94 97 99
170 173 170 170 171 172 170 169 166 163 165 163 161 160 157 157 156 154 150 145 140 135 130 130 128 122 119 121 122 124 124 128 131 132 134 134 136 137 137 136 131 127 124 123 122 119 117 119 120 119 115 113 107 104 101 98 97 94 90 87 79 74 73 71 70 69 67 68 74 83 84 79 80 85 89 86 86 94 99 99 99 98 99 100 99
167 171 171 170 171 172 171 170 168 166 167 167 165 163 160 161 160 158 154 149 142 135 131 131 129 122 120 124 126 127 127 130 135 136 138 139 140 144 143 142 138 134 133 132 131 127 126 126 126 125 121 117 113 107 101 96 94 92 88 82 74 69 68 66 66 65 62 62 65 73 75 75 87 97 100 99 97 99 102 102 102 102 102 101 99
168 171 170 170 170 172 174 173 171 169 171 171 169 167 165 165 165 163 160 155 146 137 133 130 127 122 120 123 126 131 133 136 140 141 142 141 142 146 147 147 145 142 142 142 141 136 133 132 133 132 127 121 115 109 105 100 95 92 86 78 70 65 63 61 62 63 63 64 67 70 68 69 80 87 95 105 112 110 107 106 106 105 103 101 100
171 172 171 171 170 172 176 177 174 173 175 175 172 172 170 170 171 169 166 161 153 146 141 134 127 119 116 119 122 130 134 138 143 144 144 144 141 144 147 151 151 149 149 149 145 140 136 135 137 137 132 126 119 113 109 104 97 93 86 76 69 64 62 62 64 68 70 71 74 75 76 79 83 95 105 112 118 116 111 109 107 105 104 102 99
175 175 174 174 173 174 177 179 178 176 178 178 176 175 173 173 175 174 173 169 163 157 151 143 131 123 120 120 124 129 132 135 142 146 148 146 144 144 147 152 155 156 156 153 148 143 138 135 138 139 134 128 121 115 112 107 99 93 88 79 71 62 61 66 70 72 74 75 78 78 80 91 99 107 112 114 116 115 113 111 108 106 104 101 96
180 178 177 177 177 177 178 180 182 181 180 179 179 178 174 174 175 174 177 179 176 167 158 153 143 138 138 130 131 133 133 138 143 147 149 150 148 147 149 153 156 159 159 154 149 145 140 136 138 140 135 128 123 121 117 110 102 96 91 82 71 64 65 70 75 77 78 79 84 86 84 97 108 111 115 120 119 116 115 112 109 107 104 100 93
186 182 180 179 179 181 182 182 183 184 181 179 180 178 175 175 175 173 177 185 187 179 165 161 155 150 147 138 136 134 136 142 144 146 146 148 152 151 151 152 155 160 159 155 154 152 146 139 137 136 131 127 125 124 121 116 111 105 95 86 77 69 66 72 79 79 79 80 85 94 95 100 109 114 120 124 122 118 115 112 110 107 103 97 88
192 188 184 181 181 183 185 184 184 185 182 180 179 177 176 177 177 176 178 186 192 188 177 170 162 152 144 138 136 134 137 145 147 145 143 144 150 152 150 149 152 158 160 161 162 160 157 149 140 134 126 124 124 126 131 130 123 111 98 92 87 77 69 72 80 80 80 82 86 97 105 107 113 121 125 124 122 120 116 114 111 107 101 92 80
197 194 191 187 185 185 187 186 184 185 182 179 178 177 178 180 181 181 181 185 190 192 186 175 165 151 140 137 135 133 136 145 151 151 146 143 148 152 150 147 150 154 158 163 166 165 165 161 149 137 127 124 125 130 141 142 128 116 106 98 93 86 80 78 82 83 82 83 86 98 111 117 123 128 130 128 124 121 118 117 114 107 96 84 72
200 198 196 192 190 188 189 188 186 185 182 179 179 179 180 184 187 187 185 185 189 192 188 175 165 151 139 136 134 133 135 141 148 151 148 143 145 152 153 152 150 151 155 159 164 166 168 168 160 145 135 133 132 132 142 143 131 123 118 111 101 94 89 88 87 86 81 76 84 108 122 124 129 134 134 132 127 124 123 121 115 105 90 75 63
203 203 200 196 194 192 191 190 188 187 183 181 181 180 183 187 192 194 190 186 187 188 184 174 167 154 142 138 133 134 136 136 139 142 142 140 142 148 153 156 153 152 154 155 159 164 168 172 167 153 145 143 140 135 139 145 141 135 129 121 108 97 95 98 96 97 97 92 90 112 127 128 135 142 139 134 129 127 127 124 115 100 83 68 55
204 205 203 200 197 195 195 193 191 188 186 185 184 183 185 188 194 198 193 188 187 185 183 180 176 165 154 144 135 138 142 139 135 132 134 137 139 143 146 149 150 154 157 157 158 162 167 173 171 160 152 151 148 140 139 146 150 144 135 128 118 108 108 110 106 109 116 116 103 98 127 135 141 145 140 134 131 131 132 128 115 96 77 61 49
205 205 205 203 200 199 199 197 193 191 190 189 186 185 186 188 192 196 193 189 186 185 187 186 183 174 163 151 140 143 148 145 138 133 134 136 138 141 142 144 147 152 156 159 162 163 166 170 171 165 158 158 155 148 148 148 152 155 145 140 137 128 124 125 126 127 122 119 114 109 134 142 147 150 143 138 136 137 137 130 114 95 73 56 44
205 207 206 204 203 203 203 201 198 195 193 192 188 186 187 188 190 193 192 190 186 186 188 188 186 178 167 155 147 150 153 148 143 139 137 137 140 142 143 145 146 148 150 155 160 162 164 167 170 170 166 166 163 161 161 154 159 167 158 151 150 145 143 140 141 142 134 127 124 127 142 148 154 158 149 144 143 142 142 132 115 96 73 54 37
208 209 208 207 206 205 207 207 203 200 197 194 191 187 186 187 189 191 193 192 189 187 188 188 185 177 168 158 151 152 154 149 146 146 143 143 143 140 139 141 144 148 150 152 156 158 160 165 173 178 179 179 175 173 171 168 175 172 163 173 170 154 152 145 143 145 142 143 138 131 146 154 162 166 157 150 149 147 145 136 119 100 73 46 30
211 211 210 210 209 208 210 210 208 205 201 198 194 190 188 188 188 189 193 195 192 189 189 188 184 177 171 161 153 153 154 151 148 147 151 151 145 138 135 136 143 147 148 150 152 151 151 158 171 182 187 186 182 180 178 179 185 177 170 187 184 164 157 151 149 147 148 155 148 132 152 162 166 173 166 156 154 152 151 142 128 110 67 37 25
213 213 213 212 210 209 210 211 212 210 206 202 197 193 191 188 187 188 192 196 194 191 188 188 185 179 174 167 159 157 156 152 149 150 159 159 149 141 137 138 142 144 144 147 148 146 145 151 163 176 186 187 184 184 183 182 186 189 187 192 190 178 172 170 164 154 153 162 158 150 169 172 170 176 171 162 160 157 156 153 144 119 57 31 20